Time,TemperatureF,DewpointF,PressureIn,WindDirection,WindDirectionDegrees,WindSpeedMPH,WindSpeedGustMPH,Humidity,HourlyPrecipIn,Conditions,Clouds,dailyrainin,SoftwareType,DateUTC
2013-07-23 00:01:00,78.3,73.8,29.82,WSW,257,0.0,2.0,86,0.00,,---,0.00,VWS V14.01,2013-07-23 04:01:00,
2013-07-23 00:02:00,78.3,73.8,29.82,West,262,0.0,1.0,86,0.00,,---,0.00,VWS V14.01,2013-07-23 04:02:00,
2013-07-23 00:07:00,78.3,73.8,29.82,West,260,0.0,2.0,86,0.00,,---,0.00,VWS V14.01,2013-07-23 04:07:00,
2013-07-23 00:12:00,78.4,73.9,29.82,WSW,255,0.0,2.0,86,0.00,,---,0.00,VWS V14.01,2013-07-23 04:12:00,
2013-07-23 00:17:00,78.3,73.8,29.82,West,276,0.0,2.0,86,0.00,,---,0.00,VWS V14.01,2013-07-23 04:17:00,
2013-07-23 00:22:00,78.4,73.9,29.82,West,267,1.0,2.0,86,0.00,,---,0.00,VWS V14.01,2013-07-23 04:22:00,
2013-07-23 00:27:00,78.4,73.9,29.82,WSW,242,0.0,2.0,86,0.00,,---,0.00,VWS V14.01,2013-07-23 04:27:00,
2013-07-23 00:33:00,78.4,73.5,29.82,West,263,1.0,1.0,85,0.00,,---,0.00,VWS V14.01,2013-07-23 04:33:00,
2013-07-23 00:38:00,78.3,73.8,29.82,West,266,0.0,1.0,86,0.00,,---,0.00,VWS V14.01,2013-07-23 04:38:00,
2013-07-23 00:43:00,78.3,73.8,29.82,West,267,0.0,1.0,86,0.00,,---,0.00,VWS V14.01,2013-07-23 04:43:00,
2013-07-23 00:48:00,78.2,73.7,29.82,West,267,0.0,1.0,86,0.00,,---,0.00,VWS V14.01,2013-07-23 04:48:00,
2013-07-23 00:53:00,78.1,73.6,29.82,West,262,0.0,2.0,86,0.00,,---,0.00,VWS V14.01,2013-07-23 04:53:00,
2013-07-23 00:58:00,78.1,73.6,29.82,West,263,1.0,2.0,86,0.00,,---,0.00,VWS V14.01,2013-07-23 04:58:00,
2013-07-23 01:03:00,78.0,73.5,29.82,SW,218,0.0,1.0,86,0.00,,---,0.00,VWS V14.01,2013-07-23 05:03:00,
2013-07-23 01:08:00,77.9,73.4,29.81,West,259,0.0,1.0,86,0.00,,---,0.00,VWS V14.01,2013-07-23 05:08:00,
2013-07-23 01:13:00,77.9,73.7,29.81,West,264,0.0,1.0,87,0.00,,---,0.00,VWS V14.01,2013-07-23 05:13:00,
2013-07-23 01:18:00,77.7,73.5,29.81,West,267,0.0,1.0,87,0.00,,---,0.00,VWS V14.01,2013-07-23 05:18:00,
2013-07-23 01:23:00,77.6,73.4,29.81,West,267,0.0,1.0,87,0.00,,---,0.00,VWS V14.01,2013-07-23 05:23:00,
2013-07-23 01:28:00,77.6,73.4,29.80,West,269,0.0,1.0,87,0.00,,---,0.00,VWS V14.01,2013-07-23 05:28:00,
2013-07-23 01:34:00,77.6,73.4,29.80,West,263,0.0,1.0,87,0.00,,---,0.00,VWS V14.01,2013-07-23 05:34:00,
2013-07-23 01:39:00,77.6,73.4,29.80,West,259,0.0,2.0,87,0.00,,---,0.00,VWS V14.01,2013-07-23 05:39:00,
2013-07-23 01:44:00,77.5,73.3,29.80,WSW,257,0.0,2.0,87,0.00,,---,0.00,VWS V14.01,2013-07-23 05:44:00,
2013-07-23 01:49:00,77.5,73.3,29.80,WSW,257,0.0,2.0,87,0.00,,---,0.00,VWS V14.01,2013-07-23 05:49:00,
2013-07-23 01:54:00,77.4,73.6,29.80,South,169,1.0,2.0,88,0.00,,---,0.00,VWS V14.01,2013-07-23 05:54:00,
2013-07-23 01:59:00,77.3,73.5,29.79,SW,215,1.0,2.0,88,0.00,,---,0.00,VWS V14.01,2013-07-23 05:59:00,
2013-07-23 02:04:00,77.2,73.4,29.79,SW,215,0.0,1.0,88,0.00,,---,0.00,VWS V14.01,2013-07-23 06:04:00,
2013-07-23 02:09:00,77.1,73.6,29.79,SW,215,0.0,1.0,89,0.00,,---,0.00,VWS V14.01,2013-07-23 06:09:00,
2013-07-23 02:14:00,76.9,73.4,29.79,SSW,198,0.0,1.0,89,0.00,,---,0.00,VWS V14.01,2013-07-23 06:14:00,
2013-07-23 02:19:00,76.8,73.3,29.79,SW,225,0.0,1.0,89,0.00,,---,0.00,VWS V14.01,2013-07-23 06:19:00,
2013-07-23 02:24:00,76.7,73.6,29.79,SW,233,1.0,1.0,90,0.00,,---,0.00,VWS V14.01,2013-07-23 06:24:00,
2013-07-23 02:30:00,76.6,73.4,29.78,SE,127,1.0,1.0,90,0.00,,---,0.00,VWS V14.01,2013-07-23 06:30:00,
2013-07-23 02:35:00,76.6,73.4,29.78,SE,134,1.0,1.0,90,0.00,,---,0.00,VWS V14.01,2013-07-23 06:35:00,
2013-07-23 02:40:00,76.6,73.4,29.78,SSW,212,0.0,1.0,90,0.00,,---,0.00,VWS V14.01,2013-07-23 06:40:00,
2013-07-23 02:45:00,76.6,73.4,29.78,West,262,1.0,1.0,90,0.00,,---,0.00,VWS V14.01,2013-07-23 06:45:00,
2013-07-23 02:50:00,76.6,73.4,29.77,WSW,253,1.0,2.0,90,0.00,,---,0.00,VWS V14.01,2013-07-23 06:50:00,
2013-07-23 02:55:00,76.6,73.1,29.77,West,262,0.0,2.0,89,0.00,,---,0.00,VWS V14.01,2013-07-23 06:55:00,
2013-07-23 03:00:00,76.6,73.1,29.77,NE,37,1.0,2.0,89,0.00,,---,0.00,VWS V14.01,2013-07-23 07:00:00,
2013-07-23 03:05:00,76.6,73.1,29.77,WSW,249,0.0,1.0,89,0.00,,---,0.00,VWS V14.01,2013-07-23 07:05:00,
2013-07-23 03:10:00,76.6,73.1,29.77,West,260,0.0,2.0,89,0.00,,---,0.00,VWS V14.01,2013-07-23 07:10:00,
2013-07-23 03:15:00,76.5,73.3,29.76,SW,229,0.0,2.0,90,0.00,,---,0.00,VWS V14.01,2013-07-23 07:15:00,
2013-07-23 03:21:00,76.4,73.2,29.76,West,266,1.0,2.0,90,0.00,,---,0.00,VWS V14.01,2013-07-23 07:21:00,
2013-07-23 03:26:00,76.4,73.2,29.76,WSW,253,1.0,2.0,90,0.00,,---,0.00,VWS V14.01,2013-07-23 07:26:00,
2013-07-23 03:31:00,76.3,73.2,29.76,WSW,256,0.0,2.0,90,0.00,,---,0.00,VWS V14.01,2013-07-23 07:31:00,
2013-07-23 03:36:00,76.2,73.1,29.75,SSW,200,0.0,1.0,90,0.00,,---,0.00,VWS V14.01,2013-07-23 07:36:00,
2013-07-23 03:41:00,76.2,73.1,29.75,South,184,0.0,1.0,90,0.00,,---,0.00,VWS V14.01,2013-07-23 07:41:00,
2013-07-23 03:46:00,76.2,73.1,29.75,SW,230,1.0,1.0,90,0.00,,---,0.00,VWS V14.01,2013-07-23 07:46:00,
2013-07-23 03:51:00,76.1,73.0,29.75,WSW,255,0.0,2.0,90,0.00,,---,0.00,VWS V14.01,2013-07-23 07:51:00,
2013-07-23 03:56:00,76.1,73.0,29.75,NE,37,0.0,2.0,90,0.00,,---,0.00,VWS V14.01,2013-07-23 07:56:00,
2013-07-23 04:01:00,76.0,72.9,29.75,NE,37,1.0,1.0,90,0.00,,---,0.00,VWS V14.01,2013-07-23 08:01:00,
2013-07-23 04:06:00,76.0,72.9,29.75,WSW,249,0.0,2.0,90,0.00,,---,0.00,VWS V14.01,2013-07-23 08:06:00,
2013-07-23 04:11:00,75.9,73.1,29.75,West,262,1.0,2.0,91,0.00,,---,0.00,VWS V14.01,2013-07-23 08:11:00,
2013-07-23 04:17:00,75.9,73.1,29.75,WSW,254,1.0,2.0,91,0.00,,---,0.00,VWS V14.01,2013-07-23 08:17:00,
2013-07-23 04:22:00,75.9,73.1,29.75,SW,214,1.0,2.0,91,0.00,,---,0.00,VWS V14.01,2013-07-23 08:22:00,
2013-07-23 04:27:00,75.8,73.0,29.75,SW,232,0.0,2.0,91,0.00,,---,0.00,VWS V14.01,2013-07-23 08:27:00,
2013-07-23 04:32:00,75.7,72.9,29.75,NNW,332,0.0,0.0,91,0.00,,---,0.00,VWS V14.01,2013-07-23 08:32:00,
2013-07-23 04:37:00,75.7,72.9,29.75,WSW,252,0.0,2.0,91,0.00,,---,0.00,VWS V14.01,2013-07-23 08:37:00,
2013-07-23 04:42:00,75.7,72.9,29.75,West,267,1.0,2.0,91,0.00,,---,0.00,VWS V14.01,2013-07-23 08:42:00,
2013-07-23 04:47:00,75.6,72.8,29.75,West,264,0.0,2.0,91,0.00,,---,0.00,VWS V14.01,2013-07-23 08:47:00,
2013-07-23 04:52:00,75.5,72.7,29.75,WSW,252,2.0,2.0,91,0.00,,---,0.00,VWS V14.01,2013-07-23 08:52:00,
2013-07-23 04:57:00,75.5,72.7,29.76,West,281,0.0,2.0,91,0.00,,---,0.00,VWS V14.01,2013-07-23 08:57:00,
2013-07-23 05:02:00,75.5,73.0,29.76,West,259,1.0,1.0,92,0.00,,---,0.00,VWS V14.01,2013-07-23 09:02:00,
2013-07-23 05:07:00,75.5,73.0,29.76,West,267,1.0,2.0,92,0.00,,---,0.00,VWS V14.01,2013-07-23 09:07:00,
2013-07-23 05:12:00,75.5,73.0,29.76,West,264,1.0,2.0,92,0.00,,---,0.00,VWS V14.01,2013-07-23 09:12:00,
2013-07-23 05:18:00,75.6,73.1,29.76,West,269,0.0,2.0,92,0.00,,---,0.00,VWS V14.01,2013-07-23 09:18:00,
2013-07-23 05:23:00,75.7,73.2,29.76,ESE,122,1.0,2.0,92,0.00,,---,0.00,VWS V14.01,2013-07-23 09:23:00,
2013-07-23 05:28:00,75.7,73.2,29.76,West,273,1.0,2.0,92,0.00,,---,0.00,VWS V14.01,2013-07-23 09:28:00,
2013-07-23 05:33:00,75.6,73.1,29.76,West,265,0.0,1.0,92,0.00,,---,0.00,VWS V14.01,2013-07-23 09:33:00,
2013-07-23 05:38:00,75.7,73.2,29.76,SW,230,1.0,2.0,92,0.00,,---,0.00,VWS V14.01,2013-07-23 09:38:00,
2013-07-23 05:43:00,75.7,73.2,29.77,West,263,1.0,3.0,92,0.00,,---,0.00,VWS V14.01,2013-07-23 09:43:00,
2013-07-23 05:48:00,75.7,73.2,29.77,West,271,0.0,3.0,92,0.00,,---,0.00,VWS V14.01,2013-07-23 09:48:00,
2013-07-23 05:53:00,75.6,73.1,29.77,West,267,1.0,3.0,92,0.00,,---,0.00,VWS V14.01,2013-07-23 09:53:00,
2013-07-23 05:58:00,75.6,73.1,29.77,West,265,0.0,3.0,92,0.00,,---,0.00,VWS V14.01,2013-07-23 09:58:00,
2013-07-23 06:03:00,75.6,73.1,29.77,WSW,244,0.0,1.0,92,0.00,,---,0.00,VWS V14.01,2013-07-23 10:03:00,
2013-07-23 06:08:00,75.6,73.1,29.77,West,262,0.0,2.0,92,0.00,,---,0.00,VWS V14.01,2013-07-23 10:08:00,
2013-07-23 06:13:00,75.7,73.2,29.77,West,277,0.0,4.0,92,0.00,,---,0.00,VWS V14.01,2013-07-23 10:13:00,
2013-07-23 06:18:00,75.7,72.9,29.77,West,263,1.0,4.0,91,0.00,,---,0.00,VWS V14.01,2013-07-23 10:18:00,
2013-07-23 06:23:00,75.7,72.9,29.77,West,263,0.0,4.0,91,0.00,,---,0.00,VWS V14.01,2013-07-23 10:23:00,
2013-07-23 06:28:00,75.8,73.0,29.77,West,260,0.0,4.0,91,0.00,,---,0.00,VWS V14.01,2013-07-23 10:28:00,
2013-07-23 06:34:00,75.8,73.0,29.78,West,278,0.0,2.0,91,0.00,,---,0.00,VWS V14.01,2013-07-23 10:34:00,
2013-07-23 06:39:00,75.8,73.0,29.78,WSW,248,1.0,3.0,91,0.00,,---,0.00,VWS V14.01,2013-07-23 10:39:00,
2013-07-23 06:44:00,75.8,73.0,29.78,West,267,1.0,3.0,91,0.00,,---,0.00,VWS V14.01,2013-07-23 10:44:00,
2013-07-23 06:49:00,75.8,73.0,29.78,North,4,1.0,3.0,91,0.00,,---,0.00,VWS V14.01,2013-07-23 10:49:00,
2013-07-23 06:54:00,75.8,72.7,29.78,WSW,249,1.0,3.0,90,0.00,,---,0.00,VWS V14.01,2013-07-23 10:54:00,
2013-07-23 06:59:00,75.8,72.7,29.78,WSW,250,1.0,3.0,90,0.00,,---,0.00,VWS V14.01,2013-07-23 10:59:00,
2013-07-23 07:04:00,75.9,73.1,29.78,West,263,1.0,1.0,91,0.00,,---,0.00,VWS V14.01,2013-07-23 11:04:00,
2013-07-23 07:09:00,75.9,73.1,29.78,West,277,1.0,2.0,91,0.00,,---,0.00,VWS V14.01,2013-07-23 11:09:00,
2013-07-23 07:14:00,75.8,73.0,29.78,West,275,1.0,3.0,91,0.00,,---,0.00,VWS V14.01,2013-07-23 11:14:00,
2013-07-23 07:19:00,75.8,73.0,29.78,SW,234,1.0,3.0,91,0.00,,---,0.00,VWS V14.01,2013-07-23 11:19:00,
2013-07-23 07:24:00,75.8,73.0,29.78,WSW,246,0.0,4.0,91,0.00,,---,0.00,VWS V14.01,2013-07-23 11:24:00,
2013-07-23 07:29:00,75.9,73.1,29.78,East,81,1.0,4.0,91,0.00,,---,0.00,VWS V14.01,2013-07-23 11:29:00,
2013-07-23 07:35:00,75.9,73.1,29.78,SSW,200,1.0,2.0,91,0.00,,---,0.00,VWS V14.01,2013-07-23 11:35:00,
2013-07-23 07:40:00,75.9,73.1,29.78,ESE,122,1.0,2.0,91,0.00,,---,0.00,VWS V14.01,2013-07-23 11:40:00,
2013-07-23 07:45:00,76.0,73.2,29.78,WSW,249,2.0,3.0,91,0.00,,---,0.00,VWS V14.01,2013-07-23 11:45:00,
2013-07-23 07:50:00,76.1,73.3,29.78,West,270,2.0,3.0,91,0.00,,---,0.00,VWS V14.01,2013-07-23 11:50:00,
2013-07-23 07:55:00,76.1,73.3,29.78,West,275,1.0,3.0,91,0.00,,---,0.00,VWS V14.01,2013-07-23 11:55:00,
2013-07-23 08:00:00,76.1,73.3,29.78,WSW,238,2.0,3.0,91,0.00,,---,0.00,VWS V14.01,2013-07-23 12:00:00,
2013-07-23 08:05:00,76.2,73.4,29.78,WNW,301,1.0,3.0,91,0.00,,---,0.00,VWS V14.01,2013-07-23 12:05:00,
2013-07-23 08:10:00,76.2,73.1,29.79,SE,145,1.0,3.0,90,0.00,,---,0.00,VWS V14.01,2013-07-23 12:10:00,
2013-07-23 08:15:00,76.4,73.2,29.78,West,266,0.0,3.0,90,0.00,,---,0.00,VWS V14.01,2013-07-23 12:15:00,
2013-07-23 08:20:00,76.4,73.2,29.79,West,267,2.0,3.0,90,0.00,,---,0.00,VWS V14.01,2013-07-23 12:20:00,
2013-07-23 08:26:00,76.6,73.4,29.79,WNW,283,1.0,3.0,90,0.00,,---,0.00,VWS V14.01,2013-07-23 12:26:00,
2013-07-23 08:31:00,76.8,73.3,29.79,West,273,1.0,3.0,89,0.00,,---,0.00,VWS V14.01,2013-07-23 12:31:00,
2013-07-23 08:36:00,76.9,73.4,29.79,West,281,1.0,4.0,89,0.00,,---,0.00,VWS V14.01,2013-07-23 12:36:00,
2013-07-23 08:41:00,77.1,73.6,29.79,WSW,256,2.0,4.0,89,0.00,,---,0.00,VWS V14.01,2013-07-23 12:41:00,
2013-07-23 08:46:00,77.3,73.5,29.79,West,259,1.0,4.0,88,0.00,,---,0.00,VWS V14.01,2013-07-23 12:46:00,
2013-07-23 08:51:00,77.4,73.6,29.79,West,262,1.0,4.0,88,0.00,,---,0.00,VWS V14.01,2013-07-23 12:51:00,
2013-07-23 08:56:00,77.5,73.3,29.79,West,273,0.0,4.0,87,0.00,,---,0.00,VWS V14.01,2013-07-23 12:56:00,
2013-07-23 09:01:00,77.4,73.2,29.78,West,264,0.0,1.0,87,0.00,,---,0.00,VWS V14.01,2013-07-23 13:01:00,
2013-07-23 09:06:00,77.6,73.8,29.78,WSW,252,2.0,2.0,88,0.00,,---,0.00,VWS V14.01,2013-07-23 13:06:00,
2013-07-23 09:11:00,77.9,73.7,29.78,West,269,1.0,2.0,87,0.00,,---,0.00,VWS V14.01,2013-07-23 13:11:00,
2013-07-23 09:17:00,78.2,73.7,29.78,WSW,254,0.0,3.0,86,0.00,,---,0.00,VWS V14.01,2013-07-23 13:17:00,
2013-07-23 09:22:00,78.4,73.9,29.78,West,271,4.0,4.0,86,0.00,,---,0.00,VWS V14.01,2013-07-23 13:22:00,
2013-07-23 09:27:00,78.6,73.7,29.78,WSW,257,0.0,4.0,85,0.00,,---,0.00,VWS V14.01,2013-07-23 13:27:00,
2013-07-23 09:32:00,79.1,74.2,29.78,WSW,246,1.0,2.0,85,0.00,,---,0.00,VWS V14.01,2013-07-23 13:32:00,
2013-07-23 09:37:00,79.4,74.2,29.77,West,275,2.0,4.0,84,0.00,,---,0.00,VWS V14.01,2013-07-23 13:37:00,
2013-07-23 09:42:00,79.8,74.5,29.78,West,279,1.0,4.0,84,0.00,,---,0.00,VWS V14.01,2013-07-23 13:42:00,
2013-07-23 09:47:00,80.1,74.1,29.77,WNW,283,1.0,4.0,82,0.00,,---,0.00,VWS V14.01,2013-07-23 13:47:00,
2013-07-23 09:52:00,80.3,74.3,29.77,WSW,242,1.0,4.0,82,0.00,,---,0.00,VWS V14.01,2013-07-23 13:52:00,
2013-07-23 09:57:00,80.4,74.4,29.77,West,264,1.0,4.0,82,0.00,,---,0.00,VWS V14.01,2013-07-23 13:57:00,
2013-07-23 10:02:00,80.7,74.7,29.77,West,281,2.0,2.0,82,0.00,,---,0.00,VWS V14.01,2013-07-23 14:02:00,
2013-07-23 10:07:00,80.5,74.1,29.77,WSW,253,2.0,2.0,81,0.00,,---,0.00,VWS V14.01,2013-07-23 14:07:00,
2013-07-23 10:12:00,80.6,74.2,29.77,WSW,256,1.0,3.0,81,0.00,,---,0.00,VWS V14.01,2013-07-23 14:12:00,
2013-07-23 10:17:00,81.1,74.7,29.77,SSE,160,1.0,3.0,81,0.00,,---,0.00,VWS V14.01,2013-07-23 14:17:00,
2013-07-23 10:23:00,81.3,74.5,29.77,ESE,107,0.0,3.0,80,0.00,,---,0.00,VWS V14.01,2013-07-23 14:23:00,
2013-07-23 10:28:00,81.5,74.7,29.77,ESE,113,2.0,5.0,80,0.00,,---,0.00,VWS V14.01,2013-07-23 14:28:00,
2013-07-23 10:33:00,81.8,74.3,29.77,West,260,2.0,2.0,78,0.00,,---,0.00,VWS V14.01,2013-07-23 14:33:00,
2013-07-23 10:38:00,82.0,74.5,29.77,ESE,106,0.0,3.0,78,0.00,,---,0.00,VWS V14.01,2013-07-23 14:38:00,
2013-07-23 10:43:00,82.2,74.7,29.77,West,269,1.0,3.0,78,0.00,,---,0.00,VWS V14.01,2013-07-23 14:43:00,
2013-07-23 10:48:00,82.7,74.8,29.77,WSW,257,1.0,3.0,77,0.00,,---,0.00,VWS V14.01,2013-07-23 14:48:00,
2013-07-23 10:53:00,83.0,74.7,29.76,WNW,283,1.0,3.0,76,0.00,,---,0.00,VWS V14.01,2013-07-23 14:53:00,
2013-07-23 10:58:00,83.2,74.5,29.77,SE,143,0.0,3.0,75,0.00,,---,0.00,VWS V14.01,2013-07-23 14:58:00,
2013-07-23 11:03:00,83.9,75.1,29.76,SE,136,1.0,2.0,75,0.00,,---,0.00,VWS V14.01,2013-07-23 15:03:00,
2013-07-23 11:08:00,85.2,76.0,29.76,ESE,113,0.0,2.0,74,0.00,,---,0.00,VWS V14.01,2013-07-23 15:08:00,
2013-07-23 11:13:00,86.0,74.7,29.76,SW,218,2.0,3.0,69,0.00,,---,0.00,VWS V14.01,2013-07-23 15:13:00,
2013-07-23 11:18:00,86.5,75.1,29.76,West,269,1.0,3.0,69,0.00,,---,0.00,VWS V14.01,2013-07-23 15:18:00,
2013-07-23 11:23:00,86.9,74.6,29.76,West,260,2.0,3.0,67,0.00,,---,0.00,VWS V14.01,2013-07-23 15:23:00,
2013-07-23 11:29:00,86.4,75.0,29.76,West,259,1.0,4.0,69,0.00,,---,0.00,VWS V14.01,2013-07-23 15:29:00,
2013-07-23 11:34:00,86.5,75.1,29.76,West,273,1.0,3.0,69,0.00,,---,0.00,VWS V14.01,2013-07-23 15:34:00,
2013-07-23 11:39:00,87.2,75.4,29.76,SSE,168,1.0,3.0,68,0.00,,---,0.00,VWS V14.01,2013-07-23 15:39:00,
2013-07-23 11:44:00,87.1,74.4,29.76,SSE,150,1.0,3.0,66,0.00,,---,0.00,VWS V14.01,2013-07-23 15:44:00,
2013-07-23 11:49:00,87.3,74.6,29.76,West,264,0.0,4.0,66,0.00,,---,0.00,VWS V14.01,2013-07-23 15:49:00,
2013-07-23 11:54:00,87.4,74.7,29.76,West,281,1.0,4.0,66,0.00,,---,0.00,VWS V14.01,2013-07-23 15:54:00,
2013-07-23 11:59:00,87.3,74.6,29.76,West,267,1.0,4.0,66,0.00,,---,0.00,VWS V14.01,2013-07-23 15:59:00,
2013-07-23 12:04:00,87.5,73.8,29.76,East,94,1.0,3.0,64,0.00,,---,0.00,VWS V14.01,2013-07-23 16:04:00,
2013-07-23 12:09:00,88.5,74.3,29.76,West,266,1.0,3.0,63,0.00,,---,0.00,VWS V14.01,2013-07-23 16:09:00,
2013-07-23 12:14:00,88.8,74.6,29.76,WSW,256,1.0,3.0,63,0.00,,---,0.00,VWS V14.01,2013-07-23 16:14:00,
2013-07-23 12:19:00,88.7,74.5,29.76,West,274,2.0,3.0,63,0.00,,---,0.00,VWS V14.01,2013-07-23 16:19:00,
2013-07-23 12:24:00,88.1,74.4,29.76,WNW,284,1.0,5.0,64,0.00,,---,0.00,VWS V14.01,2013-07-23 16:24:00,
2013-07-23 12:30:00,87.6,74.4,29.76,West,264,1.0,5.0,65,0.00,,---,0.00,VWS V14.01,2013-07-23 16:30:00,
2013-07-23 12:35:00,87.5,74.8,29.76,WSW,250,1.0,2.0,66,0.00,,---,0.00,VWS V14.01,2013-07-23 16:35:00,
2013-07-23 12:40:00,86.6,74.3,29.76,WSW,255,2.0,3.0,67,0.00,,---,0.00,VWS V14.01,2013-07-23 16:40:00,
2013-07-23 12:45:00,86.2,74.4,29.76,West,266,0.0,3.0,68,0.00,,---,0.00,VWS V14.01,2013-07-23 16:45:00,
2013-07-23 12:50:00,87.1,73.9,29.76,ESE,115,1.0,3.0,65,0.00,,---,0.00,VWS V14.01,2013-07-23 16:50:00,
2013-07-23 12:55:00,88.3,74.6,29.76,SSW,207,1.0,3.0,64,0.00,,---,0.00,VWS V14.01,2013-07-23 16:55:00,
2013-07-23 13:00:00,88.8,75.5,29.75,West,273,1.0,3.0,65,0.00,,---,0.00,VWS V14.01,2013-07-23 17:00:00,
2013-07-23 13:05:00,88.2,75.0,29.75,East,89,1.0,3.0,65,0.00,,---,0.00,VWS V14.01,2013-07-23 17:05:00,
2013-07-23 13:10:00,88.9,75.6,29.75,West,264,1.0,3.0,65,0.00,,---,0.00,VWS V14.01,2013-07-23 17:10:00,
2013-07-23 13:15:00,89.8,76.0,29.75,West,266,1.0,3.0,64,0.00,,---,0.00,VWS V14.01,2013-07-23 17:15:00,
2013-07-23 13:20:00,91.1,76.3,29.75,West,281,2.0,3.0,62,0.00,,---,0.00,VWS V14.01,2013-07-23 17:20:00,
2013-07-23 13:25:00,91.3,75.5,29.75,West,266,0.0,3.0,60,0.00,,---,0.00,VWS V14.01,2013-07-23 17:25:00,
2013-07-23 13:31:00,90.7,74.9,29.75,SW,219,2.0,3.0,60,0.00,,---,0.00,VWS V14.01,2013-07-23 17:31:00,
2013-07-23 13:36:00,89.4,74.7,29.75,West,269,1.0,2.0,62,0.00,,---,0.00,VWS V14.01,2013-07-23 17:36:00,
2013-07-23 13:41:00,89.1,75.8,29.74,West,273,0.0,3.0,65,0.00,,---,0.00,VWS V14.01,2013-07-23 17:41:00,
2013-07-23 13:46:00,89.6,74.9,29.74,NE,37,2.0,3.0,62,0.00,,---,0.00,VWS V14.01,2013-07-23 17:46:00,
2013-07-23 13:51:00,89.5,75.7,29.74,ENE,73,2.0,3.0,64,0.00,,---,0.00,VWS V14.01,2013-07-23 17:51:00,
2013-07-23 13:56:00,90.1,75.3,29.74,NW,304,1.0,3.0,62,0.00,,---,0.00,VWS V14.01,2013-07-23 17:56:00,
2013-07-23 14:01:00,91.2,75.9,29.74,West,278,1.0,2.0,61,0.00,,---,0.00,VWS V14.01,2013-07-23 18:01:00,
2013-07-23 14:06:00,91.6,76.2,29.74,NE,53,1.0,2.0,61,0.00,,---,0.00,VWS V14.01,2013-07-23 18:06:00,
2013-07-23 14:12:00,92.4,76.5,29.74,West,266,1.0,3.0,60,0.00,,---,0.00,VWS V14.01,2013-07-23 18:12:00,
2013-07-23 14:17:00,92.8,75.9,29.74,West,278,0.0,3.0,58,0.00,,---,0.00,VWS V14.01,2013-07-23 18:17:00,
2013-07-23 14:22:00,92.7,75.8,29.74,West,260,1.0,3.0,58,0.00,,---,0.00,VWS V14.01,2013-07-23 18:22:00,
2013-07-23 14:27:00,92.0,75.1,29.73,West,263,1.0,3.0,58,0.00,,---,0.00,VWS V14.01,2013-07-23 18:27:00,
2013-07-23 14:32:00,92.4,75.0,29.73,SSW,205,1.0,2.0,57,0.00,,---,0.00,VWS V14.01,2013-07-23 18:32:00,
2013-07-23 14:37:00,92.5,75.1,29.73,WNW,290,1.0,3.0,57,0.00,,---,0.00,VWS V14.01,2013-07-23 18:37:00,
2013-07-23 14:42:00,92.1,75.7,29.73,ESE,105,0.0,3.0,59,0.00,,---,0.00,VWS V14.01,2013-07-23 18:42:00,
2013-07-23 14:47:00,92.1,74.2,29.73,West,276,1.0,3.0,56,0.00,,---,0.00,VWS V14.01,2013-07-23 18:47:00,
2013-07-23 14:52:00,92.3,75.9,29.73,WNW,297,0.0,3.0,59,0.00,,---,0.00,VWS V14.01,2013-07-23 18:52:00,
2013-07-23 14:57:00,92.0,75.1,29.73,WNW,283,1.0,3.0,58,0.00,,---,0.00,VWS V14.01,2013-07-23 18:57:00,
2013-07-23 15:02:00,91.2,76.4,29.73,West,274,0.0,1.0,62,0.00,,---,0.00,VWS V14.01,2013-07-23 19:02:00,
2013-07-23 15:08:00,90.4,74.6,29.73,SSE,162,0.0,2.0,60,0.00,,---,0.00,VWS V14.01,2013-07-23 19:08:00,
2013-07-23 15:13:00,89.7,76.4,29.73,WSW,240,0.0,2.0,65,0.00,,---,0.00,VWS V14.01,2013-07-23 19:13:00,
2013-07-23 15:18:00,89.3,76.0,29.72,SE,146,0.0,2.0,65,0.00,,---,0.00,VWS V14.01,2013-07-23 19:18:00,
2013-07-23 15:23:00,89.8,76.5,29.72,NE,41,2.0,2.0,65,0.00,,---,0.00,VWS V14.01,2013-07-23 19:23:00,
2013-07-23 15:28:00,90.4,76.1,29.72,SW,218,2.0,3.0,63,0.00,,---,0.00,VWS V14.01,2013-07-23 19:28:00,
2013-07-23 15:33:00,90.6,75.8,29.72,WSW,248,1.0,1.0,62,0.00,,---,0.00,VWS V14.01,2013-07-23 19:33:00,
2013-07-23 15:39:00,90.7,75.9,29.71,West,281,0.0,2.0,62,0.00,,---,0.00,VWS V14.01,2013-07-23 19:39:00,
2013-07-23 15:44:00,91.1,75.8,29.71,SW,233,1.0,3.0,61,0.00,,---,0.00,VWS V14.01,2013-07-23 19:44:00,
2013-07-23 15:49:00,91.0,76.2,29.71,SW,215,1.0,3.0,62,0.00,,---,0.00,VWS V14.01,2013-07-23 19:49:00,
2013-07-23 15:54:00,90.9,76.1,29.71,WSW,243,0.0,3.0,62,0.00,,---,0.00,VWS V14.01,2013-07-23 19:54:00,
2013-07-23 15:59:00,90.5,75.7,29.70,East,101,1.0,3.0,62,0.00,,---,0.00,VWS V14.01,2013-07-23 19:59:00,
2013-07-23 16:05:00,90.9,76.1,29.70,SSE,150,0.0,2.0,62,0.00,,---,0.00,VWS V14.01,2013-07-23 20:05:00,
2013-07-23 16:10:00,91.7,76.8,29.70,ESE,104,1.0,2.0,62,0.00,,---,0.00,VWS V14.01,2013-07-23 20:10:00,
2013-07-23 16:15:00,91.3,76.0,29.70,SW,233,1.0,2.0,61,0.00,,---,0.00,VWS V14.01,2013-07-23 20:15:00,
2013-07-23 16:20:00,90.9,75.1,29.70,ENE,64,3.0,5.0,60,0.00,,---,0.00,VWS V14.01,2013-07-23 20:20:00,
2013-07-23 16:25:00,90.4,74.1,29.70,SE,142,0.0,5.0,59,0.00,,---,0.00,VWS V14.01,2013-07-23 20:25:00,
2013-07-23 16:30:00,90.1,73.8,29.70,SE,129,0.0,5.0,59,0.00,,---,0.00,VWS V14.01,2013-07-23 20:30:00,
2013-07-23 16:35:00,89.9,73.7,29.69,WSW,243,2.0,4.0,59,0.00,,---,0.00,VWS V14.01,2013-07-23 20:35:00,
2013-07-23 16:40:00,89.4,73.7,29.69,WSW,240,1.0,4.0,60,0.00,,---,0.00,VWS V14.01,2013-07-23 20:40:00,
2013-07-23 16:45:00,89.3,74.6,29.69,West,271,0.0,4.0,62,0.00,,---,0.00,VWS V14.01,2013-07-23 20:45:00,
2013-07-23 16:50:00,89.4,73.7,29.69,WNW,285,0.0,4.0,60,0.00,,---,0.00,VWS V14.01,2013-07-23 20:50:00,
2013-07-23 16:56:00,89.4,73.7,29.69,West,281,1.0,4.0,60,0.00,,---,0.00,VWS V14.01,2013-07-23 20:56:00,
2013-07-23 17:01:00,89.1,73.4,29.69,ESE,123,0.0,4.0,60,0.00,,---,0.00,VWS V14.01,2013-07-23 21:01:00,
2013-07-23 17:06:00,89.1,73.9,29.69,South,186,1.0,1.0,61,0.00,,---,0.00,VWS V14.01,2013-07-23 21:06:00,
2013-07-23 17:11:00,88.9,74.2,29.69,WSW,249,1.0,2.0,62,0.00,,---,0.00,VWS V14.01,2013-07-23 21:11:00,
2013-07-23 17:16:00,88.8,74.1,29.69,ESE,108,1.0,2.0,62,0.00,,---,0.00,VWS V14.01,2013-07-23 21:16:00,
2013-07-23 17:21:00,88.6,73.9,29.70,ENE,63,0.0,3.0,62,0.00,,---,0.00,VWS V14.01,2013-07-23 21:21:00,
2013-07-23 17:26:00,88.7,74.5,29.70,SSW,210,1.0,3.0,63,0.00,,---,0.00,VWS V14.01,2013-07-23 21:26:00,
2013-07-23 17:32:00,88.6,74.4,29.70,South,190,1.0,1.0,63,0.00,,---,0.00,VWS V14.01,2013-07-23 21:32:00,
2013-07-23 17:37:00,88.3,74.6,29.70,East,93,0.0,2.0,64,0.00,,---,0.00,VWS V14.01,2013-07-23 21:37:00,
2013-07-23 17:42:00,88.1,73.9,29.70,SW,229,0.0,2.0,63,0.00,,---,0.00,VWS V14.01,2013-07-23 21:42:00,
2013-07-23 17:47:00,87.8,74.6,29.69,SW,225,1.0,2.0,65,0.00,,---,0.00,VWS V14.01,2013-07-23 21:47:00,
2013-07-23 17:52:00,87.5,73.8,29.70,West,278,1.0,2.0,64,0.00,,---,0.00,VWS V14.01,2013-07-23 21:52:00,
2013-07-23 17:58:00,87.2,74.0,29.70,West,278,0.0,2.0,65,0.00,,---,0.00,VWS V14.01,2013-07-23 21:58:00,
2013-07-23 18:03:00,87.0,74.3,29.69,West,259,1.0,1.0,66,0.00,,---,0.00,VWS V14.01,2013-07-23 22:03:00,
2013-07-23 18:08:00,87.0,74.3,29.69,SW,218,1.0,2.0,66,0.00,,---,0.00,VWS V14.01,2013-07-23 22:08:00,
2013-07-23 18:13:00,87.1,74.4,29.69,SW,224,0.0,2.0,66,0.00,,---,0.00,VWS V14.01,2013-07-23 22:13:00,
2013-07-23 18:19:00,87.3,75.0,29.69,SW,222,0.0,2.0,67,0.00,,---,0.00,VWS V14.01,2013-07-23 22:19:00,
2013-07-23 18:24:00,87.2,74.9,29.69,SW,229,0.0,2.0,67,0.00,,---,0.00,VWS V14.01,2013-07-23 22:24:00,
2013-07-23 18:29:00,87.1,74.8,29.69,WSW,252,1.0,2.0,67,0.00,,---,0.00,VWS V14.01,2013-07-23 22:29:00,
2013-07-23 18:34:00,86.8,74.5,29.68,NE,35,1.0,1.0,67,0.00,,---,0.00,VWS V14.01,2013-07-23 22:34:00,
2013-07-23 18:39:00,86.7,74.4,29.68,West,272,1.0,1.0,67,0.00,,---,0.00,VWS V14.01,2013-07-23 22:39:00,
2013-07-23 18:44:00,86.6,74.8,29.69,WSW,255,0.0,1.0,68,0.00,,---,0.00,VWS V14.01,2013-07-23 22:44:00,
2013-07-23 18:49:00,86.5,74.7,29.69,WSW,255,0.0,1.0,68,0.00,,---,0.00,VWS V14.01,2013-07-23 22:49:00,
2013-07-23 18:54:00,86.4,75.5,29.69,WSW,253,0.0,1.0,70,0.00,,---,0.00,VWS V14.01,2013-07-23 22:54:00,
2013-07-23 18:59:00,86.3,75.4,29.69,West,260,0.0,1.0,70,0.00,,---,0.00,VWS V14.01,2013-07-23 22:59:00,
2013-07-23 19:05:00,86.0,74.7,29.69,West,266,0.0,1.0,69,0.00,,---,0.00,VWS V14.01,2013-07-23 23:05:00,
2013-07-23 19:10:00,85.7,74.8,29.69,West,266,0.0,2.0,70,0.00,,---,0.00,VWS V14.01,2013-07-23 23:10:00,
2013-07-23 19:15:00,85.5,74.6,29.70,West,264,0.0,2.0,70,0.00,,---,0.00,VWS V14.01,2013-07-23 23:15:00,
2013-07-23 19:20:00,85.2,74.7,29.69,West,265,0.0,2.0,71,0.00,,---,0.00,VWS V14.01,2013-07-23 23:20:00,
2013-07-23 19:25:00,84.9,74.9,29.69,NNW,335,0.0,2.0,72,0.00,,---,0.00,VWS V14.01,2013-07-23 23:25:00,
2013-07-23 19:30:00,84.7,74.7,29.69,NNW,334,0.0,2.0,72,0.00,,---,0.00,VWS V14.01,2013-07-23 23:30:00,
2013-07-23 19:36:00,84.5,74.5,29.69,NNW,335,0.0,0.0,72,0.00,,---,0.00,VWS V14.01,2013-07-23 23:36:00,
2013-07-23 19:41:00,84.4,74.8,29.69,NNW,334,0.0,0.0,73,0.00,,---,0.00,VWS V14.01,2013-07-23 23:41:00,
2013-07-23 19:46:00,84.2,74.6,29.70,NNW,334,0.0,0.0,73,0.00,,---,0.00,VWS V14.01,2013-07-23 23:46:00,
2013-07-23 19:52:00,84.0,74.4,29.70,NNW,334,0.0,0.0,73,0.00,,---,0.00,VWS V14.01,2013-07-23 23:52:00,
2013-07-23 19:57:00,83.7,74.5,29.70,NNW,335,0.0,0.0,74,0.00,,---,0.00,VWS V14.01,2013-07-23 23:57:00,
2013-07-23 20:02:00,83.5,74.8,29.70,NNW,335,0.0,0.0,75,0.00,,---,0.00,VWS V14.01,2013-07-24 00:02:00,
2013-07-23 20:07:00,83.3,74.6,29.70,NNW,334,0.0,0.0,75,0.00,,---,0.00,VWS V14.01,2013-07-24 00:07:00,
2013-07-23 20:12:00,83.0,74.3,29.70,NNW,334,0.0,0.0,75,0.00,,---,0.00,VWS V14.01,2013-07-24 00:12:00,
2013-07-23 20:17:00,82.7,74.4,29.70,NNW,335,0.0,0.0,76,0.00,,---,0.00,VWS V14.01,2013-07-24 00:17:00,
2013-07-23 20:22:00,82.5,74.2,29.70,NNW,335,0.0,0.0,76,0.00,,---,0.00,VWS V14.01,2013-07-24 00:22:00,
2013-07-23 20:27:00,82.3,74.4,29.70,NNW,334,0.0,0.0,77,0.00,,---,0.00,VWS V14.01,2013-07-24 00:27:00,
2013-07-23 20:32:00,82.0,74.1,29.71,NNW,334,0.0,0.0,77,0.00,,---,0.00,VWS V14.01,2013-07-24 00:32:00,
2013-07-23 20:37:00,81.9,74.0,29.71,NNW,335,0.0,0.0,77,0.00,,---,0.00,VWS V14.01,2013-07-24 00:37:00,
2013-07-23 20:43:00,81.5,74.0,29.71,NNW,334,0.0,0.0,78,0.00,,---,0.00,VWS V14.01,2013-07-24 00:43:00,
2013-07-23 20:48:00,81.2,73.7,29.70,NNW,335,0.0,0.0,78,0.00,,---,0.00,VWS V14.01,2013-07-24 00:48:00,
2013-07-23 20:54:00,80.9,73.8,29.71,NNW,334,0.0,0.0,79,0.00,,---,0.00,VWS V14.01,2013-07-24 00:54:00,
2013-07-23 20:59:00,80.7,74.0,29.71,NNW,334,0.0,0.0,80,0.00,,---,0.00,VWS V14.01,2013-07-24 00:59:00,
2013-07-23 21:04:00,80.5,73.8,29.71,NNW,334,0.0,0.0,80,0.00,,---,0.00,VWS V14.01,2013-07-24 01:04:00,
2013-07-23 21:09:00,80.3,73.6,29.71,NNW,335,0.0,0.0,80,0.00,,---,0.00,VWS V14.01,2013-07-24 01:09:00,
2013-07-23 21:14:00,80.0,73.7,29.71,NNW,334,0.0,0.0,81,0.00,,---,0.00,VWS V14.01,2013-07-24 01:14:00,
2013-07-23 21:19:00,79.7,73.4,29.72,NNW,334,0.0,0.0,81,0.00,,---,0.00,VWS V14.01,2013-07-24 01:19:00,
2013-07-23 21:25:00,79.6,74.0,29.72,NNW,334,0.0,0.0,83,0.00,,---,0.00,VWS V14.01,2013-07-24 01:25:00,
2013-07-23 21:30:00,79.6,74.0,29.72,NNW,334,0.0,0.0,83,0.00,,---,0.00,VWS V14.01,2013-07-24 01:30:00,
2013-07-23 21:35:00,79.4,73.8,29.73,NNW,335,0.0,0.0,83,0.00,,---,0.00,VWS V14.01,2013-07-24 01:35:00,
2013-07-23 21:41:00,79.3,73.7,29.73,NNW,334,0.0,0.0,83,0.00,,---,0.00,VWS V14.01,2013-07-24 01:41:00,
2013-07-23 21:46:00,79.2,73.6,29.73,NNW,334,0.0,0.0,83,0.00,,---,0.00,VWS V14.01,2013-07-24 01:46:00,
2013-07-23 21:51:00,79.0,73.8,29.73,NNW,335,0.0,0.0,84,0.00,,---,0.00,VWS V14.01,2013-07-24 01:51:00,
2013-07-23 21:56:00,78.8,73.6,29.74,NNW,334,0.0,0.0,84,0.00,,---,0.00,VWS V14.01,2013-07-24 01:56:00,
2013-07-23 22:01:00,78.7,73.8,29.74,NNW,334,0.0,0.0,85,0.00,,---,0.00,VWS V14.01,2013-07-24 02:01:00,
2013-07-23 22:06:00,78.6,73.7,29.74,NNW,335,0.0,0.0,85,0.00,,---,0.00,VWS V14.01,2013-07-24 02:06:00,
2013-07-23 22:11:00,78.7,73.5,29.75,NNW,335,0.0,0.0,84,0.00,,---,0.00,VWS V14.01,2013-07-24 02:11:00,
2013-07-23 22:16:00,78.9,73.7,29.75,NNW,334,0.0,0.0,84,0.00,,---,0.00,VWS V14.01,2013-07-24 02:16:00,
2013-07-23 22:21:00,78.9,73.7,29.75,NNW,334,0.0,0.0,84,0.00,,---,0.00,VWS V14.01,2013-07-24 02:21:00,
2013-07-23 22:26:00,78.7,73.5,29.75,NNW,334,0.0,0.0,84,0.00,,---,0.00,VWS V14.01,2013-07-24 02:26:00,
2013-07-23 22:31:00,78.5,73.6,29.75,NNW,334,0.0,0.0,85,0.00,,---,0.00,VWS V14.01,2013-07-24 02:31:00,
2013-07-23 22:37:00,78.3,73.4,29.75,NNW,335,0.0,0.0,85,0.00,,---,0.00,VWS V14.01,2013-07-24 02:37:00,
2013-07-23 22:42:00,78.0,73.1,29.75,NNW,334,0.0,0.0,85,0.00,,---,0.00,VWS V14.01,2013-07-24 02:42:00,
2013-07-23 22:47:00,77.8,72.9,29.74,NNW,334,0.0,0.0,85,0.00,,---,0.00,VWS V14.01,2013-07-24 02:47:00,
2013-07-23 22:52:00,77.7,73.2,29.74,NNW,334,0.0,0.0,86,0.00,,---,0.00,VWS V14.01,2013-07-24 02:52:00,
2013-07-23 22:57:00,77.7,73.5,29.74,NNW,334,0.0,0.0,87,0.00,,---,0.00,VWS V14.01,2013-07-24 02:57:00,
2013-07-23 23:02:00,77.7,73.5,29.74,NNW,335,0.0,0.0,87,0.00,,---,0.00,VWS V14.01,2013-07-24 03:02:00,
2013-07-23 23:08:00,77.5,73.3,29.74,NNW,334,0.0,0.0,87,0.00,,---,0.00,VWS V14.01,2013-07-24 03:08:00,
2013-07-23 23:13:00,77.3,73.1,29.75,NNW,334,0.0,0.0,87,0.00,,---,0.00,VWS V14.01,2013-07-24 03:13:00,
2013-07-23 23:19:00,77.1,73.3,29.75,NNW,334,0.0,0.0,88,0.00,,---,0.00,VWS V14.01,2013-07-24 03:19:00,
2013-07-23 23:24:00,77.0,73.2,29.74,NNW,335,0.0,0.0,88,0.00,,---,0.00,VWS V14.01,2013-07-24 03:24:00,
2013-07-23 23:29:00,76.7,72.9,29.74,NNW,335,0.0,0.0,88,0.00,,---,0.00,VWS V14.01,2013-07-24 03:29:00,
2013-07-23 23:34:00,76.6,73.1,29.74,NNW,335,0.0,0.0,89,0.00,,---,0.00,VWS V14.01,2013-07-24 03:34:00,
2013-07-23 23:39:00,76.5,73.0,29.74,NNW,335,0.0,0.0,89,0.00,,---,0.00,VWS V14.01,2013-07-24 03:39:00,
2013-07-23 23:44:00,76.3,72.8,29.74,NNW,335,0.0,0.0,89,0.00,,---,0.00,VWS V14.01,2013-07-24 03:44:00,
2013-07-23 23:49:00,76.2,72.7,29.74,NNW,335,0.0,0.0,89,0.00,,---,0.00,VWS V14.01,2013-07-24 03:49:00,
2013-07-23 23:54:00,76.1,73.0,29.74,NNW,335,0.0,0.0,90,0.00,,---,0.00,VWS V14.01,2013-07-24 03:54:00,
2013-07-23 23:59:00,76.2,73.1,29.74,NNW,335,0.0,0.0,90,0.00,,---,0.00,VWS V14.01,2013-07-24 03:59:00,